Time,TemperatureF,DewpointF,PressureIn,WindDirection,WindDirectionDegrees,WindSpeedMPH,WindSpeedGustMPH,Humidity,HourlyPrecipIn,Conditions,Clouds,dailyrainin,SoftwareType,DateUTC
2013-03-29 00:00:00,37.9,33.2,30.31,ENE,68,0.0,0.0,83,0.00,,---,0.00,VWS V14.00,2013-03-29 04:00:00,
2013-03-29 00:10:00,37.6,33.2,30.31,ENE,68,0.0,0.0,84,0.00,,---,0.00,VWS V14.00,2013-03-29 04:10:00,
2013-03-29 00:20:00,37.3,32.9,30.31,ENE,68,0.0,0.0,84,0.00,,---,0.00,VWS V14.00,2013-03-29 04:20:00,
2013-03-29 00:30:00,37.0,32.6,30.30,ENE,68,0.0,0.0,84,0.00,,---,0.00,VWS V14.00,2013-03-29 04:30:00,
2013-03-29 00:40:00,36.8,32.7,30.31,ENE,68,0.0,0.0,85,0.00,,---,0.00,VWS V14.00,2013-03-29 04:40:00,
2013-03-29 00:50:00,36.5,32.7,30.31,ENE,68,0.0,0.0,86,0.00,,---,0.00,VWS V14.00,2013-03-29 04:50:00,
2013-03-29 01:00:00,36.2,32.7,30.31,ENE,68,0.0,0.0,87,0.00,,---,0.00,VWS V14.00,2013-03-29 05:00:00,
2013-03-29 01:10:00,35.9,32.1,30.31,ENE,68,0.0,0.0,86,0.00,,---,0.00,VWS V14.00,2013-03-29 05:10:00,
2013-03-29 01:20:00,35.6,32.1,30.31,ENE,68,0.0,0.0,87,0.00,,---,0.00,VWS V14.00,2013-03-29 05:20:00,
2013-03-29 01:30:00,35.4,32.2,30.31,ENE,68,0.0,0.0,88,0.00,,---,0.00,VWS V14.00,2013-03-29 05:30:00,
2013-03-29 01:40:00,35.1,32.2,30.31,ENE,68,0.0,0.0,89,0.00,,---,0.00,VWS V14.00,2013-03-29 05:40:00,
2013-03-29 01:50:00,34.9,31.7,30.31,ENE,68,0.0,0.0,88,0.00,,---,0.00,VWS V14.00,2013-03-29 05:50:00,
2013-03-29 02:00:00,34.6,31.7,30.31,ENE,68,0.0,0.0,89,0.00,,---,0.00,VWS V14.00,2013-03-29 06:00:00,
2013-03-29 02:10:00,34.3,31.4,30.31,ENE,68,0.0,0.0,89,0.00,,---,0.00,VWS V14.00,2013-03-29 06:10:00,
2013-03-29 02:20:00,34.2,31.3,30.31,ENE,68,0.0,0.0,89,0.00,,---,0.00,VWS V14.00,2013-03-29 06:20:00,
2013-03-29 02:30:00,34.4,32.0,30.31,ENE,68,0.0,0.0,91,0.00,,---,0.00,VWS V14.00,2013-03-29 06:30:00,
2013-03-29 02:40:00,34.7,32.3,30.31,ENE,68,0.0,0.0,91,0.00,,---,0.00,VWS V14.00,2013-03-29 06:40:00,
2013-03-29 02:50:00,34.8,32.5,30.31,ENE,68,0.0,0.0,91,0.00,,---,0.00,VWS V14.00,2013-03-29 06:50:00,
2013-03-29 03:00:00,34.7,32.1,30.31,ENE,68,0.0,0.0,90,0.00,,---,0.00,VWS V14.00,2013-03-29 07:00:00,
2013-03-29 03:10:00,34.6,32.0,30.30,ENE,68,0.0,0.0,90,0.00,,---,0.00,VWS V14.00,2013-03-29 07:10:00,
2013-03-29 03:20:00,34.4,32.0,30.30,ENE,68,0.0,0.0,91,0.00,,---,0.00,VWS V14.00,2013-03-29 07:20:00,
2013-03-29 03:30:00,34.6,32.2,30.30,ENE,68,0.0,0.0,91,0.00,,---,0.00,VWS V14.00,2013-03-29 07:30:00,
2013-03-29 03:40:00,34.7,32.3,30.30,ENE,68,0.0,0.0,91,0.00,,---,0.00,VWS V14.00,2013-03-29 07:40:00,
2013-03-29 03:50:00,34.8,32.5,30.30,ENE,68,0.0,0.0,91,0.00,,---,0.00,VWS V14.00,2013-03-29 07:50:00,
2013-03-29 04:00:00,34.9,32.8,30.30,ENE,68,0.0,0.0,92,0.00,,---,0.00,VWS V14.00,2013-03-29 08:00:00,
2013-03-29 04:10:00,35.1,33.0,30.30,ENE,68,0.0,0.0,92,0.00,,---,0.00,VWS V14.00,2013-03-29 08:10:00,
2013-03-29 04:20:00,35.1,33.0,30.30,ENE,68,0.0,0.0,92,0.00,,---,0.00,VWS V14.00,2013-03-29 08:20:00,
2013-03-29 04:30:00,35.0,32.6,30.29,ENE,68,0.0,0.0,91,0.00,,---,0.00,VWS V14.00,2013-03-29 08:30:00,
2013-03-29 04:40:00,34.8,32.5,30.29,ENE,68,0.0,0.0,91,0.00,,---,0.00,VWS V14.00,2013-03-29 08:40:00,
2013-03-29 04:50:00,34.6,32.2,30.29,ENE,68,0.0,0.0,91,0.00,,---,0.00,VWS V14.00,2013-03-29 08:50:00,
2013-03-29 05:00:00,34.4,32.0,30.29,ENE,68,0.0,0.0,91,0.00,,---,0.00,VWS V14.00,2013-03-29 09:00:00,
2013-03-29 05:10:00,34.4,32.3,30.29,ENE,68,0.0,0.0,92,0.00,,---,0.00,VWS V14.00,2013-03-29 09:10:00,
2013-03-29 05:20:00,34.4,32.3,30.29,ENE,68,0.0,0.0,92,0.00,,---,0.00,VWS V14.00,2013-03-29 09:20:00,
2013-03-29 05:30:00,34.3,32.2,30.29,ENE,68,0.0,0.0,92,0.00,,---,0.00,VWS V14.00,2013-03-29 09:30:00,
2013-03-29 05:40:00,34.1,32.0,30.29,ENE,68,0.0,0.0,92,0.00,,---,0.00,VWS V14.00,2013-03-29 09:40:00,
2013-03-29 05:50:00,33.8,31.7,30.29,ENE,68,0.0,0.0,92,0.00,,---,0.00,VWS V14.00,2013-03-29 09:50:00,
2013-03-29 06:00:00,33.7,31.6,30.30,ENE,68,0.0,0.0,92,0.00,,---,0.00,VWS V14.00,2013-03-29 10:00:00,
2013-03-29 06:10:00,33.8,33.8,30.30,ENE,68,0.0,0.0,100,0.00,,---,0.00,VWS V14.00,2013-03-29 10:10:00,
2013-03-29 06:20:00,34.0,32.2,30.30,ENE,68,0.0,0.0,93,0.00,,---,0.00,VWS V14.00,2013-03-29 10:20:00,
2013-03-29 06:30:00,33.9,32.1,30.30,ENE,68,0.0,0.0,93,0.00,,---,0.00,VWS V14.00,2013-03-29 10:30:00,
2013-03-29 06:40:00,33.9,32.1,30.30,ENE,68,0.0,0.0,93,0.00,,---,0.00,VWS V14.00,2013-03-29 10:40:00,
2013-03-29 06:50:00,33.6,31.5,30.30,ENE,68,0.0,0.0,92,0.00,,---,0.00,VWS V14.00,2013-03-29 10:50:00,
2013-03-29 07:00:00,33.3,31.2,30.30,ENE,68,0.0,0.0,92,0.00,,---,0.00,VWS V14.00,2013-03-29 11:00:00,
2013-03-29 07:10:00,33.0,30.9,30.30,ENE,68,0.0,0.0,92,0.00,,---,0.00,VWS V14.00,2013-03-29 11:10:00,
2013-03-29 07:20:00,32.8,30.7,30.31,ENE,68,0.0,0.0,92,0.00,,---,0.00,VWS V14.00,2013-03-29 11:20:00,
2013-03-29 07:30:00,32.6,30.8,30.31,ENE,68,0.0,0.0,93,0.00,,---,0.00,VWS V14.00,2013-03-29 11:30:00,
2013-03-29 07:40:00,32.4,30.6,30.31,ENE,68,0.0,0.0,93,0.00,,---,0.00,VWS V14.00,2013-03-29 11:40:00,
2013-03-29 07:50:00,32.3,30.5,30.31,ENE,68,0.0,0.0,93,0.00,,---,0.00,VWS V14.00,2013-03-29 11:50:00,
2013-03-29 08:00:00,32.2,30.4,30.32,ENE,68,0.0,0.0,93,0.00,,---,0.00,VWS V14.00,2013-03-29 12:00:00,
2013-03-29 08:10:00,32.5,31.0,30.32,ENE,68,0.0,0.0,94,0.00,,---,0.00,VWS V14.00,2013-03-29 12:10:00,
2013-03-29 08:20:00,33.0,31.5,30.31,ENE,68,0.0,0.0,94,0.00,,---,0.00,VWS V14.00,2013-03-29 12:20:00,
2013-03-29 08:30:00,33.6,32.3,30.32,ENE,68,0.0,0.0,95,0.00,,---,0.00,VWS V14.00,2013-03-29 12:30:00,
2013-03-29 08:40:00,34.2,32.9,30.33,ENE,68,0.0,0.0,95,0.00,,---,0.00,VWS V14.00,2013-03-29 12:40:00,
2013-03-29 08:50:00,35.6,34.3,30.33,ENE,68,0.0,2.0,95,0.00,,---,0.00,VWS V14.00,2013-03-29 12:50:00,
2013-03-29 09:00:00,36.8,35.2,30.33,ENE,68,0.0,1.0,94,0.00,,---,0.00,VWS V14.00,2013-03-29 13:00:00,
2013-03-29 09:10:00,37.7,35.6,30.33,ENE,68,0.0,0.0,92,0.00,,---,0.00,VWS V14.00,2013-03-29 13:10:00,
2013-03-29 09:20:00,38.6,35.9,30.33,ENE,68,0.0,1.0,90,0.00,,---,0.00,VWS V14.00,2013-03-29 13:20:00,
2013-03-29 09:30:00,39.2,36.0,30.33,ENE,68,0.0,1.0,88,0.00,,---,0.00,VWS V14.00,2013-03-29 13:30:00,
2013-03-29 09:40:00,39.8,36.2,30.33,ENE,68,0.0,0.0,87,0.00,,---,0.00,VWS V14.00,2013-03-29 13:40:00,
2013-03-29 09:50:00,40.2,36.1,30.34,ENE,68,0.0,0.0,85,0.00,,---,0.00,VWS V14.00,2013-03-29 13:50:00,
2013-03-29 10:00:00,40.8,36.0,30.34,ENE,68,0.0,0.0,83,0.00,,---,0.00,VWS V14.00,2013-03-29 14:00:00,
2013-03-29 10:10:00,41.3,36.8,30.34,ENE,68,0.0,0.0,84,0.00,,---,0.00,VWS V14.00,2013-03-29 14:10:00,
2013-03-29 10:20:00,42.0,37.2,30.33,ENE,68,0.0,1.0,83,0.00,,---,0.00,VWS V14.00,2013-03-29 14:20:00,
2013-03-29 10:30:00,42.7,37.6,30.33,ENE,68,0.0,0.0,82,0.00,,---,0.00,VWS V14.00,2013-03-29 14:30:00,
2013-03-29 10:40:00,43.5,38.1,30.33,ENE,68,0.0,2.0,81,0.00,,---,0.00,VWS V14.00,2013-03-29 14:40:00,
2013-03-29 10:50:00,44.4,38.0,30.33,ENE,68,0.0,2.0,78,0.00,,---,0.00,VWS V14.00,2013-03-29 14:50:00,
2013-03-29 11:00:00,45.8,38.3,30.33,ENE,68,0.0,2.0,75,0.00,,---,0.00,VWS V14.00,2013-03-29 15:00:00,
2013-03-29 11:10:00,47.0,37.0,30.34,ENE,68,0.0,1.0,68,0.00,,---,0.00,VWS V14.00,2013-03-29 15:10:00,
2013-03-29 11:20:00,47.8,37.0,30.34,ENE,68,0.0,1.0,66,0.00,,---,0.00,VWS V14.00,2013-03-29 15:20:00,
2013-03-29 11:30:00,48.6,38.2,30.34,East,90,1.0,5.0,67,0.00,,---,0.00,VWS V14.00,2013-03-29 15:30:00,
2013-03-29 11:40:00,49.1,37.9,30.34,SE,135,1.0,4.0,65,0.00,,---,0.00,VWS V14.00,2013-03-29 15:40:00,
2013-03-29 11:50:00,49.4,37.3,30.34,SE,135,1.0,4.0,63,0.00,,---,0.00,VWS V14.00,2013-03-29 15:50:00,
2013-03-29 12:00:00,49.5,37.8,30.34,SSE,158,1.0,4.0,64,0.00,,---,0.00,VWS V14.00,2013-03-29 16:00:00,
2013-03-29 12:10:00,49.7,36.8,30.34,East,90,1.0,4.0,61,0.00,,---,0.00,VWS V14.00,2013-03-29 16:10:00,
2013-03-29 12:20:00,50.0,37.1,30.34,ENE,68,1.0,4.0,61,0.00,,---,0.00,VWS V14.00,2013-03-29 16:20:00,
2013-03-29 12:30:00,50.5,37.6,30.33,ENE,68,1.0,5.0,61,0.00,,---,0.00,VWS V14.00,2013-03-29 16:30:00,
2013-03-29 12:40:00,50.4,38.3,30.33,ENE,68,1.0,5.0,63,0.00,,---,0.00,VWS V14.00,2013-03-29 16:40:00,
2013-03-29 12:50:00,50.5,38.8,30.33,ENE,68,1.0,5.0,64,0.00,,---,0.00,VWS V14.00,2013-03-29 16:50:00,
2013-03-29 13:00:00,50.9,38.8,30.33,ENE,68,1.0,5.0,63,0.00,,---,0.00,VWS V14.00,2013-03-29 17:00:00,
2013-03-29 13:10:00,51.2,39.0,30.33,NE,45,1.0,4.0,63,0.00,,---,0.00,VWS V14.00,2013-03-29 17:10:00,
2013-03-29 13:20:00,51.6,39.0,30.32,NE,45,1.0,5.0,62,0.00,,---,0.00,VWS V14.00,2013-03-29 17:20:00,
2013-03-29 13:30:00,51.8,38.8,30.31,ENE,68,1.0,4.0,61,0.00,,---,0.00,VWS V14.00,2013-03-29 17:30:00,
2013-03-29 13:40:00,52.1,37.8,30.31,ENE,68,2.0,6.0,58,0.00,,---,0.00,VWS V14.00,2013-03-29 17:40:00,
2013-03-29 13:50:00,52.1,38.2,30.31,ENE,68,1.0,4.0,59,0.00,,---,0.00,VWS V14.00,2013-03-29 17:50:00,
2013-03-29 14:00:00,52.4,37.6,30.29,East,90,1.0,5.0,57,0.00,,---,0.00,VWS V14.00,2013-03-29 18:00:00,
2013-03-29 14:10:00,53.5,37.8,30.29,NNW,338,2.0,6.0,55,0.00,,---,0.00,VWS V14.00,2013-03-29 18:10:00,
2013-03-29 14:20:00,54.4,37.6,30.29,ENE,68,1.0,6.0,53,0.00,,---,0.00,VWS V14.00,2013-03-29 18:20:00,
2013-03-29 14:30:00,55.3,36.5,30.29,NNE,22,2.0,6.0,49,0.00,,---,0.00,VWS V14.00,2013-03-29 18:30:00,
2013-03-29 14:40:00,55.9,37.0,30.28,East,90,1.0,5.0,49,0.00,,---,0.00,VWS V14.00,2013-03-29 18:40:00,
2013-03-29 14:50:00,56.5,37.6,30.27,NNE,22,1.0,6.0,49,0.00,,---,0.00,VWS V14.00,2013-03-29 18:50:00,
2013-03-29 15:00:00,57.5,39.5,30.26,NNE,22,1.0,5.0,51,0.00,,---,0.00,VWS V14.00,2013-03-29 19:00:00,
2013-03-29 15:10:00,57.7,38.7,30.26,ENE,68,1.0,4.0,49,0.00,,---,0.00,VWS V14.00,2013-03-29 19:10:00,
2013-03-29 15:20:00,57.5,37.5,30.25,ENE,68,2.0,6.0,47,0.00,,---,0.00,VWS V14.00,2013-03-29 19:20:00,
2013-03-29 15:30:00,57.2,37.7,30.26,NNE,22,1.0,6.0,48,0.00,,---,0.00,VWS V14.00,2013-03-29 19:30:00,
2013-03-29 15:40:00,57.2,37.2,30.25,NE,45,1.0,4.0,47,0.00,,---,0.00,VWS V14.00,2013-03-29 19:40:00,
2013-03-29 15:50:00,56.7,37.2,30.25,ENE,68,1.0,5.0,48,0.00,,---,0.00,VWS V14.00,2013-03-29 19:50:00,
2013-03-29 16:00:00,56.5,36.5,30.25,NNE,22,1.0,5.0,47,0.00,,---,0.00,VWS V14.00,2013-03-29 20:00:00,
2013-03-29 16:10:00,56.3,37.4,30.24,ENE,68,1.0,5.0,49,0.00,,---,0.00,VWS V14.00,2013-03-29 20:10:00,
2013-03-29 16:20:00,56.4,35.9,30.24,ENE,68,1.0,5.0,46,0.00,,---,0.00,VWS V14.00,2013-03-29 20:20:00,
2013-03-29 16:30:00,56.8,37.9,30.24,East,90,1.0,5.0,49,0.00,,---,0.00,VWS V14.00,2013-03-29 20:30:00,
2013-03-29 16:40:00,57.1,36.0,30.24,NNE,22,1.0,5.0,45,0.00,,---,0.00,VWS V14.00,2013-03-29 20:40:00,
2013-03-29 16:50:00,57.0,35.9,30.23,NE,45,1.0,5.0,45,0.00,,---,0.00,VWS V14.00,2013-03-29 20:50:00,
2013-03-29 17:00:00,57.2,34.9,30.23,NNE,22,1.0,5.0,43,0.00,,---,0.00,VWS V14.00,2013-03-29 21:00:00,
2013-03-29 17:10:00,57.2,36.1,30.23,NE,45,2.0,6.0,45,0.00,,---,0.00,VWS V14.00,2013-03-29 21:10:00,
2013-03-29 17:20:00,57.0,35.9,30.23,NE,45,2.0,5.0,45,0.00,,---,0.00,VWS V14.00,2013-03-29 21:20:00,
2013-03-29 17:30:00,57.2,37.2,30.23,NE,45,2.0,6.0,47,0.00,,---,0.00,VWS V14.00,2013-03-29 21:30:00,
2013-03-29 17:40:00,56.9,37.4,30.23,NNE,22,2.0,5.0,48,0.00,,---,0.00,VWS V14.00,2013-03-29 21:40:00,
2013-03-29 17:50:00,56.0,37.1,30.23,NE,45,1.0,4.0,49,0.00,,---,0.00,VWS V14.00,2013-03-29 21:50:00,
2013-03-29 18:00:00,54.8,36.0,30.22,ENE,68,1.0,4.0,49,0.00,,---,0.00,VWS V14.00,2013-03-29 22:00:00,
2013-03-29 18:10:00,54.1,36.9,30.22,North,0,0.0,4.0,52,0.00,,---,0.00,VWS V14.00,2013-03-29 22:10:00,
2013-03-29 18:20:00,53.8,36.6,30.22,NNE,22,1.0,5.0,52,0.00,,---,0.00,VWS V14.00,2013-03-29 22:20:00,
2013-03-29 18:30:00,53.7,37.5,30.22,NNE,22,0.0,2.0,54,0.00,,---,0.00,VWS V14.00,2013-03-29 22:30:00,
2013-03-29 18:40:00,53.6,37.4,30.21,NNW,338,0.0,4.0,54,0.00,,---,0.00,VWS V14.00,2013-03-29 22:40:00,
2013-03-29 18:50:00,53.4,37.7,30.21,NNE,22,0.0,4.0,55,0.00,,---,0.00,VWS V14.00,2013-03-29 22:50:00,
2013-03-29 19:00:00,53.1,37.8,30.21,ENE,68,0.0,5.0,56,0.00,,---,0.00,VWS V14.00,2013-03-29 23:00:00,
2013-03-29 19:10:00,52.8,38.0,30.20,NE,45,0.0,4.0,57,0.00,,---,0.00,VWS V14.00,2013-03-29 23:10:00,
2013-03-29 19:20:00,52.5,38.2,30.21,NE,45,0.0,2.0,58,0.00,,---,0.00,VWS V14.00,2013-03-29 23:20:00,
2013-03-29 19:30:00,52.1,38.7,30.21,NE,45,1.0,5.0,60,0.00,,---,0.00,VWS V14.00,2013-03-29 23:30:00,
2013-03-29 19:40:00,51.6,38.6,30.21,NE,45,1.0,5.0,61,0.00,,---,0.00,VWS V14.00,2013-03-29 23:40:00,
2013-03-29 19:50:00,51.1,39.0,30.21,NNW,338,0.0,5.0,63,0.00,,---,0.00,VWS V14.00,2013-03-29 23:50:00,
2013-03-29 20:00:00,50.5,39.6,30.21,NNE,22,0.0,3.0,66,0.00,,---,0.00,VWS V14.00,2013-03-30 00:00:00,
2013-03-29 20:10:00,49.9,40.2,30.21,ENE,68,0.0,4.0,69,0.00,,---,0.00,VWS V14.00,2013-03-30 00:10:00,
2013-03-29 20:20:00,49.3,39.9,30.21,NW,315,0.0,3.0,70,0.00,,---,0.00,VWS V14.00,2013-03-30 00:20:00,
2013-03-29 20:30:00,48.8,39.8,30.21,North,0,0.0,4.0,71,0.00,,---,0.00,VWS V14.00,2013-03-30 00:30:00,
2013-03-29 20:40:00,48.5,39.9,30.21,NNE,22,0.0,2.0,72,0.00,,---,0.00,VWS V14.00,2013-03-30 00:40:00,
2013-03-29 20:50:00,48.3,40.1,30.21,NNE,22,0.0,2.0,73,0.00,,---,0.00,VWS V14.00,2013-03-30 00:50:00,
2013-03-29 21:00:00,48.1,40.2,30.21,NNE,22,0.0,0.0,74,0.00,,---,0.00,VWS V14.00,2013-03-30 01:00:00,
2013-03-29 21:10:00,47.9,40.4,30.21,WNW,292,0.0,2.0,75,0.00,,---,0.00,VWS V14.00,2013-03-30 01:10:00,
2013-03-29 21:20:00,47.7,40.5,30.21,WNW,292,0.0,2.0,76,0.00,,---,0.00,VWS V14.00,2013-03-30 01:20:00,
2013-03-29 21:30:00,47.6,40.4,30.22,NNE,22,0.0,2.0,76,0.00,,---,0.00,VWS V14.00,2013-03-30 01:30:00,
2013-03-29 21:40:00,47.4,40.6,30.22,NNE,22,0.0,1.0,77,0.00,,---,0.00,VWS V14.00,2013-03-30 01:40:00,
2013-03-29 21:50:00,47.3,40.8,30.22,NNE,22,0.0,2.0,78,0.00,,---,0.00,VWS V14.00,2013-03-30 01:50:00,
2013-03-29 22:00:00,47.0,40.8,30.21,NE,45,0.0,3.0,79,0.00,,---,0.00,VWS V14.00,2013-03-30 02:00:00,
2013-03-29 22:10:00,46.8,41.0,30.22,NE,45,0.0,2.0,80,0.00,,---,0.00,VWS V14.00,2013-03-30 02:10:00,
2013-03-29 22:20:00,46.7,41.2,30.22,NNE,22,0.0,3.0,81,0.00,,---,0.00,VWS V14.00,2013-03-30 02:20:00,
2013-03-29 22:30:00,46.5,41.3,30.22,NNE,22,0.0,2.0,82,0.00,,---,0.00,VWS V14.00,2013-03-30 02:30:00,
2013-03-29 22:40:00,46.3,41.1,30.22,WNW,292,0.0,2.0,82,0.00,,---,0.00,VWS V14.00,2013-03-30 02:40:00,
2013-03-29 22:50:00,46.2,41.3,30.22,WNW,292,0.0,1.0,83,0.00,,---,0.00,VWS V14.00,2013-03-30 02:50:00,
2013-03-29 23:00:00,46.1,41.2,30.23,WNW,292,0.0,1.0,83,0.00,,---,0.00,VWS V14.00,2013-03-30 03:00:00,
2013-03-29 23:10:00,46.0,41.4,30.23,WNW,292,0.0,0.0,84,0.00,,---,0.00,VWS V14.00,2013-03-30 03:10:00,
2013-03-29 23:20:00,46.0,41.4,30.23,WNW,292,0.0,1.0,84,0.00,,---,0.00,VWS V14.00,2013-03-30 03:20:00,
2013-03-29 23:30:00,46.0,41.4,30.22,WNW,292,0.0,1.0,84,0.00,,---,0.00,VWS V14.00,2013-03-30 03:30:00,
2013-03-29 23:40:00,45.9,41.7,30.23,WNW,292,0.0,0.0,85,0.00,,---,0.00,VWS V14.00,2013-03-30 03:40:00,
2013-03-29 23:50:00,45.9,41.3,30.23,WNW,292,0.0,1.0,84,0.00,,---,0.00,VWS V14.00,2013-03-30 03:50:00,